CW7841 Weather Reports


Display with metric or nautical units.
time (UTC)temp
F
wind
direction
speed
MPH
gust
MPH
rain 1hr
in
rain 24hr
in
rain mn
in
humidity
%
barometer
mb
20171024002517 81 173 3.0 10.0 0.00 0.06 0.06 84 1014.3
20171024001017 81 150 6.0 10.0 0.00 0.06 0.06 84 1014.4
20171024000518 81 156 0.0 6.0 0.00 0.06 0.06 84 1014.4
20171023235017 81 130 3.0 10.0 0.00 0.06 0.06 84 1014.4
20171023234017 81 165 0.0 9.0 0.00 0.06 0.06 84 1014.7
20171023232017 81 142 0.0 0.0 0.00 0.06 0.06 84 1014.6
20171023231517 81 161 0.0 0.0 0.00 0.06 0.06 84 1014.5
20171023230517 81 143 0.0 0.0 0.00 0.06 0.06 84 1014.5
20171023230017 82 160 0.0 11.0 0.00 0.06 0.06 83 1014.8
20171023225517 82 159 1.0 11.0 0.00 0.06 0.06 84 1014.6
20171023225017 82 147 0.0 11.0 0.00 0.06 0.06 83 1014.6
20171023224517 82 158 0.0 11.0 0.00 0.06 0.06 83 1014.6
20171023224017 82 142 0.0 11.0 0.00 0.06 0.06 83 1014.5
20171023223517 82 165 0.0 11.0 0.00 0.06 0.06 83 1014.3
20171023221517 82 132 5.0 9.0 0.00 0.06 0.06 82 1014.4
20171023215517 82 126 0.0 10.0 0.00 0.06 0.06 81 1014.3
20171023214517 82 136 0.0 10.0 0.00 0.06 0.06 81 1014.5
20171023214017 82 130 4.0 10.0 0.00 0.06 0.06 82 1014.4
20171023212017 83 137 6.0 10.0 0.00 0.06 0.06 81 1014.4
20171023211517 83 142 0.0 10.0 0.00 0.06 0.06 81 1014.5
20171023205518 83 135 0.0 12.0 0.00 0.06 0.06 80 1014.5
20171023205017 83 154 0.0 12.0 0.00 0.06 0.06 81 1014.6
20171023203517 83 133 4.0 12.0 0.00 0.06 0.06 80 1014.7
20171023202517 83 133 0.0 12.0 0.00 0.06 0.06 81 1014.4
20171023202017 83 122 0.0 12.0 0.00 0.06 0.06 80 1014.4
20171023201518 83 142 7.0 12.0 0.00 0.06 0.06 80 1014.6
20171023201018 83 133 0.0 12.0 0.00 0.06 0.06 79 1014.5
20171023195518 83 122 5.0 16.0 0.00 0.06 0.06 82 1014.7
20171023195017 83 130 0.0 16.0 0.00 0.06 0.06 81 1014.7
20171023193517 84 136 8.0 16.0 0.00 0.06 0.06 78 1014.8
20171023193017 84 128 7.0 16.0 0.00 0.06 0.06 77 1014.9
20171023192017 84 148 3.0 12.0 0.00 0.06 0.06 79 1015.2
20171023191518 84 106 11.0 12.0 0.00 0.06 0.06 80 1015.3
20171023191018 84 122 0.0 12.0 0.00 0.06 0.06 80 1015.1
20171023190018 84 129 2.0 14.0 0.00 0.06 0.06 80 1015.1
20171023185017 84 125 5.0 13.0 0.00 0.06 0.06 80 1015.3
20171023183518 84 121 5.0 12.0 0.00 0.06 0.06 81 1015.4
20171023182518 84 130 10.0 12.0 0.00 0.06 0.06 81 1015.5
20171023182018 84 122 0.0 12.0 0.00 0.06 0.06 81 1015.4
20171023180518 84 140 5.0 10.0 0.00 0.06 0.06 81 1015.9
20171023180018 84 128 4.0 13.0 0.02 0.06 0.06 86 1015.9
20171023175518 84 123 1.0 13.0 0.02 0.06 0.06 83 1015.9
20171023175018 84 132 0.0 13.0 0.02 0.06 0.06 83 1015.9
20171023174018 84 122 8.0 13.0 0.02 0.06 0.06 99 1016.0
20171023173518 84 128 2.0 13.0 0.02 0.06 0.06 82 1016.2
20171023172018 84 115 0.0 13.0 0.02 0.06 0.06 85 1016.2
20171023171018 83 106 1.0 10.0 0.02 0.06 0.06 86 1016.4
20171023170518 83 151 1.0 10.0 0.02 0.06 0.06 85 1016.7
20171023165018 82 135 0.0 14.0 0.02 0.06 0.06 87 1016.9
20171023164518 82 133 0.0 14.0 0.02 0.06 0.06 87 1016.9
20171023163018 82 163 0.0 14.0 0.02 0.06 0.06 87 1017.3
20171023162518 81 181 4.0 14.0 0.02 0.06 0.06 87 1017.4
20171023162018 81 175 2.0 14.0 0.02 0.06 0.06 85 1017.4
20171023161518 82 149 4.0 14.0 0.02 0.06 0.06 83 1017.5
20171023155018 83 139 6.0 15.0 0.04 0.04 0.04 85 1017.8
20171023154518 82 150 8.0 15.0 0.04 0.04 0.04 87 1017.5
20171023153518 82 136 2.0 15.0 0.04 0.04 0.04 87 1017.8
20171023153018 81 136 0.0 15.0 0.04 0.04 0.04 87 1017.9
20171023152518 81 109 7.0 15.0 0.04 0.04 0.04 88 1018.0
20171023152018 81 159 0.0 10.0 0.04 0.04 0.04 88 1018.1
20171023151518 81 135 1.0 10.0 0.04 0.04 0.04 88 1018.0
20171023151018 81 132 2.0 10.0 0.04 0.04 0.04 89 1018.0
20171023150518 81 142 0.0 10.0 0.04 0.04 0.04 91 1018.1
20171023144518 81 117 0.0 10.0 0.04 0.04 0.04 90 1018.5
20171023143018 81 151 0.0 10.0 0.04 0.04 0.04 89 1018.5
20171023142018 81 133 0.0 10.0 0.01 0.01 0.01 88 1018.6
20171023141518 81 172 1.0 9.0 0.01 0.01 0.01 88 1018.5
20171023141018 81 164 3.0 9.0 0.01 0.01 0.01 88 1018.5
20171023140518 81 149 0.0 7.0 0.00 0.00 0.00 87 1018.3
20171023134018 82 172 0.0 12.0 0.00 0.00 0.00 86 1018.6
20171023133518 82 145 0.0 12.0 0.00 0.00 0.00 85 1018.6
20171023133018 82 182 2.0 12.0 0.00 0.00 0.00 86 1018.6
20171023131518 82 144 0.0 10.0 0.00 0.00 0.00 86 1018.6
20171023131018 81 122 0.0 10.0 0.00 0.00 0.00 86 1018.3
20171023124019 80 127 1.0 9.0 0.00 0.00 0.00 89 1018.3
20171023123518 80 125 0.0 9.0 0.00 0.00 0.00 89 1018.4
20171023123019 80 137 3.0 7.0 0.00 0.00 0.00 88 1018.2
20171023122518 79 131 0.0 4.0 0.00 0.00 0.00 89 1018.4
20171023122019 79 130 0.0 4.0 0.00 0.00 0.00 88 1018.5
20171023114519 79 129 2.0 6.0 0.00 0.00 0.00 88 1018.1
20171023112519 79 137 0.0 6.0 0.00 0.00 0.00 88 1018.3
20171023112019 79 141 0.0 6.0 0.00 0.00 0.00 88 1018.1
20171023111518 79 153 0.0 5.0 0.00 0.00 0.00 88 1018.3
20171023111019 79 131 0.0 0.0 0.00 0.00 0.00 87 1018.1
20171023110520 79 132 0.0 0.0 0.00 0.00 0.00 88 1017.9
20171023110019 79 138 0.0 8.0 0.00 0.00 0.00 87 1018.1
20171023105519 79 125 0.0 8.0 0.00 0.00 0.00 87 1018.0
20171023105019 79 130 0.0 8.0 0.00 0.00 0.00 87 1018.1
20171023103519 79 134 0.0 7.0 0.00 0.00 0.00 87 1017.9
20171023103019 79 131 3.0 7.0 0.00 0.00 0.00 87 1017.9
20171023102519 79 118 6.0 7.0 0.00 0.00 0.00 86 1018.0
20171023101519 79 120 0.0 7.0 0.00 0.00 0.00 86 1017.9
20171023101019 79 150 0.0 7.0 0.00 0.00 0.00 86 1017.9
20171023100519 79 126 0.0 3.0 0.00 0.00 0.00 86 1017.9
20171023100019 79 124 0.0 12.0 0.00 0.00 0.00 86 1017.8
20171023095519 79 127 0.0 12.0 0.00 0.00 0.00 86 1017.7
20171023093519 79 112 4.0 12.0 0.00 0.00 0.00 86 1017.7
20171023092019 79 118 3.0 12.0 0.00 0.00 0.00 86 1017.6
20171023091519 79 125 4.0 12.0 0.00 0.00 0.00 86 1017.7
20171023091019 79 120 2.0 12.0 0.00 0.00 0.00 86 1017.9
20171023080520 80 131 3.0 8.0 0.00 0.00 0.00 85 1018.1
20171023080020 80 113 0.0 8.0 0.00 0.00 0.00 85 1018.1
20171023074520 80 125 0.0 8.0 0.00 0.00 0.00 85 1018.2
20171023074020 80 141 0.0 8.0 0.00 0.00 0.00 85 1018.5
20171023073020 80 123 0.0 6.0 0.00 0.00 0.00 84 1018.3
20171023072520 80 114 0.0 6.0 0.00 0.00 0.00 84 1018.4
20171023072020 80 130 0.0 6.0 0.00 0.00 0.00 84 1018.6
20171023071020 80 137 0.0 6.0 0.00 0.00 0.00 84 1018.8
20171023070520 80 137 0.0 5.0 0.00 0.00 0.00 84 1018.8
20171023070020 80 127 3.0 10.0 0.00 0.00 0.00 84 1018.8
20171023065520 80 126 4.0 10.0 0.00 0.00 0.00 84 1018.8
20171023065020 80 138 0.0 10.0 0.00 0.00 0.00 83 1018.9
20171023064020 80 140 2.0 10.0 0.00 0.00 0.00 83 1018.8
20171023063020 80 123 0.0 9.0 0.00 0.00 0.00 83 1018.9
20171023062020 80 119 3.0 9.0 0.00 0.00 0.00 83 1018.9
20171023060520 80 138 3.0 9.0 0.00 0.00 0.00 83 1019.1
20171023055020 80 124 7.0 8.0 0.00 0.00 0.00 83 1019.2
20171023054520 80 129 0.0 8.0 0.00 0.00 0.00 83 1019.0
20171023053520 80 147 0.0 8.0 0.00 0.00 0.00 82 1019.0
20171023053020 80 118 5.0 8.0 0.00 0.00 0.00 82 1019.0
20171023052520 80 113 3.0 7.0 0.00 0.00 0.00 83 1019.1
20171023051520 80 124 0.0 4.0 0.00 0.00 0.00 84 1019.5
20171023045520 80 138 1.0 10.0 0.00 0.00 0.00 85 1019.5
20171023044520 80 122 0.0 10.0 0.00 0.00 0.00 84 1019.4
20171023044020 80 129 2.0 10.0 0.00 0.00 0.00 84 1019.5
20171023043520 80 123 2.0 10.0 0.00 0.00 0.00 84 1019.3
20171023043020 80 137 0.0 10.0 0.00 0.00 0.00 85 1019.3
20171023042020 80 122 1.0 10.0 0.00 0.00 0.00 84 1019.6
20171023041520 80 128 1.0 10.0 0.00 0.00 0.00 84 1019.6
20171023040020 80 106 0.0 10.0 0.00 0.00 0.00 84 1019.7
20171023035021 80 119 5.0 10.0 0.00 0.00 0.00 84 1019.7
20171023034520 80 120 3.0 10.0 0.00 0.00 0.00 84 1019.7
20171023033520 80 122 3.0 10.0 0.00 0.00 0.00 83 1019.9
20171023032520 80 110 0.0 10.0 0.00 0.00 0.00 84 1019.7
20171023031520 81 101 1.0 10.0 0.00 0.00 0.00 84 1019.9
20171023030520 81 118 3.0 10.0 0.00 0.00 0.00 84 1019.8
20171023030021 80 115 10.0 12.0 0.00 0.00 0.00 83 1020.0
20171023025520 80 139 2.0 12.0 0.00 0.00 0.00 83 1019.7
20171023025020 81 101 0.0 12.0 0.00 0.00 0.00 83 1019.7
20171023023521 81 150 2.0 9.0 0.00 0.00 0.00 83 1020.0
20171023023020 81 125 2.0 9.0 0.00 0.00 0.00 83 1020.1
20171023021520 81 142 0.0 7.0 0.00 0.00 0.00 83 1019.9
20171023020021 81 116 0.0 10.0 0.00 0.00 0.00 83 1019.9
20171023015021 81 116 0.0 10.0 0.00 0.00 0.00 83 1019.9
20171023013521 81 113 0.0 10.0 0.00 0.00 0.00 84 1020.1
20171023011021 81 107 2.0 9.0 0.00 0.00 0.00 84 1019.7
20171023010520 81 111 3.0 6.0 0.00 0.00 0.00 84 1019.9
20171023010021 81 114 2.0 10.0 0.00 0.00 0.00 84 1019.7
20171023005021 81 119 0.0 9.0 0.00 0.00 0.00 84 1019.8
20171023004520 81 133 3.0 9.0 0.00 0.00 0.00 84 1019.6
20171023004021 81 103 4.0 9.0 0.00 0.00 0.00 84 1019.8
20171023003021 81 144 4.0 8.0 0.00 0.00 0.00 83 1019.8